Time,TemperatureF,DewpointF,PressureIn,WindDirection,WindDirectionDegrees,WindSpeedMPH,WindSpeedGustMPH,Humidity,HourlyPrecipIn,Conditions,Clouds,dailyrainin,SoftwareType,DateUTC
2013-04-13 00:02:00,19.0,10.0,30.12,NE,40,1.0,-999.0,66,-99.99,,,-99.99,,2013-04-13 06:02:00,
2013-04-13 00:12:00,19.0,10.0,30.12,NE,40,1.0,-999.0,66,-99.99,,,-99.99,,2013-04-13 06:12:00,
2013-04-13 00:23:00,19.0,10.0,30.13,NE,40,0.0,-999.0,66,-99.99,,,-99.99,,2013-04-13 06:23:00,
2013-04-13 00:34:00,19.0,10.0,30.13,NE,40,0.0,-999.0,66,-99.99,,,-99.99,,2013-04-13 06:34:00,
2013-04-13 00:46:00,19.0,10.0,30.13,NE,40,0.0,-999.0,66,-99.99,,,-99.99,,2013-04-13 06:46:00,
2013-04-13 00:53:00,18.0,9.0,30.13,NE,40,0.0,-999.0,67,-99.99,,,-99.99,,2013-04-13 06:53:00,
2013-04-13 01:05:00,18.0,9.0,30.13,NE,40,0.0,-999.0,67,-99.99,,,-99.99,,2013-04-13 07:05:00,
2013-04-13 01:14:00,18.0,9.0,30.13,NE,40,0.0,-999.0,67,-99.99,,,-99.99,,2013-04-13 07:14:00,
2013-04-13 01:23:00,17.0,8.0,30.12,NE,40,0.0,-999.0,67,-99.99,,,-99.99,,2013-04-13 07:23:00,
2013-04-13 01:34:00,17.0,9.0,30.12,NE,40,0.0,-999.0,69,-99.99,,,-99.99,,2013-04-13 07:34:00,
2013-04-13 01:44:00,17.0,9.0,30.12,NE,40,0.0,-999.0,69,-99.99,,,-99.99,,2013-04-13 07:44:00,
2013-04-13 01:54:00,16.0,8.0,30.11,NE,40,0.0,-999.0,69,-99.99,,,-99.99,,2013-04-13 07:54:00,
2013-04-13 02:06:00,16.0,8.0,30.11,NE,40,0.0,-999.0,70,-99.99,,,-99.99,,2013-04-13 08:06:00,
2013-04-13 02:15:00,16.0,8.0,30.11,NE,40,0.0,-999.0,70,-99.99,,,-99.99,,2013-04-13 08:15:00,
2013-04-13 02:25:00,15.0,7.0,30.11,NE,40,0.0,-999.0,70,-99.99,,,-99.99,,2013-04-13 08:25:00,
2013-04-13 02:34:00,15.0,7.0,30.09,NE,40,0.0,-999.0,70,-99.99,,,-99.99,,2013-04-13 08:34:00,
2013-04-13 02:45:00,15.0,7.0,30.09,NE,40,0.0,-999.0,70,-99.99,,,-99.99,,2013-04-13 08:45:00,
2013-04-13 02:53:00,14.0,6.0,30.09,NE,40,0.0,-999.0,71,-99.99,,,-99.99,,2013-04-13 08:53:00,
2013-04-13 03:05:00,14.0,6.0,30.07,NE,40,0.0,-999.0,71,-99.99,,,-99.99,,2013-04-13 09:05:00,
2013-04-13 03:14:00,14.0,6.0,30.07,NE,40,0.0,-999.0,71,-99.99,,,-99.99,,2013-04-13 09:14:00,
2013-04-13 03:24:00,14.0,6.0,30.07,NE,40,1.0,-999.0,69,-99.99,,,-99.99,,2013-04-13 09:24:00,
2013-04-13 03:36:00,14.0,6.0,30.07,NE,40,0.0,-999.0,71,-99.99,,,-99.99,,2013-04-13 09:36:00,
2013-04-13 03:49:00,14.0,6.0,30.07,NE,40,0.0,-999.0,71,-99.99,,,-99.99,,2013-04-13 09:49:00,
2013-04-13 04:05:00,13.0,5.0,30.06,NE,40,0.0,-999.0,70,-99.99,,,-99.99,,2013-04-13 10:05:00,
2013-04-13 04:15:00,13.0,5.0,30.06,NE,40,1.0,-999.0,69,-99.99,,,-99.99,,2013-04-13 10:15:00,
2013-04-13 04:24:00,13.0,5.0,30.06,NE,40,1.0,-999.0,69,-99.99,,,-99.99,,2013-04-13 10:24:00,
2013-04-13 04:36:00,13.0,5.0,30.06,NE,40,1.0,-999.0,69,-99.99,,,-99.99,,2013-04-13 10:36:00,
2013-04-13 04:45:00,13.0,5.0,30.06,NE,40,1.0,-999.0,69,-99.99,,,-99.99,,2013-04-13 10:45:00,
2013-04-13 04:53:00,13.0,5.0,30.06,NE,40,1.0,-999.0,71,-99.99,,,-99.99,,2013-04-13 10:53:00,
2013-04-13 05:05:00,13.0,6.0,30.05,NE,40,1.0,-999.0,72,-99.99,,,-99.99,,2013-04-13 11:05:00,
2013-04-13 05:13:00,13.0,6.0,30.05,NE,40,1.0,-999.0,72,-99.99,,,-99.99,,2013-04-13 11:13:00,
2013-04-13 05:23:00,14.0,6.0,30.05,NE,40,0.0,-999.0,69,-99.99,,,-99.99,,2013-04-13 11:23:00,
2013-04-13 05:34:00,15.0,6.0,30.04,NE,40,0.0,-999.0,68,-99.99,,,-99.99,,2013-04-13 11:34:00,
2013-04-13 05:53:00,15.0,6.0,30.03,NE,40,0.0,-999.0,67,-99.99,,,-99.99,,2013-04-13 11:53:00,
2013-04-13 06:08:00,15.0,6.0,30.03,NE,40,0.0,-999.0,66,-99.99,,,-99.99,,2013-04-13 12:08:00,
2013-04-13 06:15:00,15.0,6.0,30.03,NE,40,0.0,-999.0,66,-99.99,,,-99.99,,2013-04-13 12:15:00,
2013-04-13 06:24:00,17.0,6.0,30.02,NE,40,1.0,-999.0,62,-99.99,,,-99.99,,2013-04-13 12:24:00,
2013-04-13 06:35:00,18.0,7.0,30.02,NE,40,0.0,-999.0,61,-99.99,,,-99.99,,2013-04-13 12:35:00,
2013-04-13 06:46:00,18.0,7.0,30.02,NE,40,0.0,-999.0,61,-99.99,,,-99.99,,2013-04-13 12:46:00,
2013-04-13 06:54:00,17.0,6.0,30.01,NE,40,0.0,-999.0,60,-99.99,,,-99.99,,2013-04-13 12:54:00,
2013-04-13 07:05:00,18.0,6.0,30.01,NE,40,0.0,-999.0,59,-99.99,,,-99.99,,2013-04-13 13:05:00,
2013-04-13 07:15:00,18.0,6.0,30.01,NE,40,0.0,-999.0,59,-99.99,,,-99.99,,2013-04-13 13:15:00,
2013-04-13 07:26:00,17.0,6.0,30.02,NE,40,0.0,-999.0,60,-99.99,,,-99.99,,2013-04-13 13:26:00,
2013-04-13 07:34:00,18.0,5.0,30.01,NE,40,1.0,-999.0,57,-99.99,,,-99.99,,2013-04-13 13:34:00,
2013-04-13 07:47:00,18.0,5.0,30.01,NE,40,1.0,-999.0,57,-99.99,,,-99.99,,2013-04-13 13:47:00,
2013-04-13 07:53:00,19.0,6.0,30.01,NE,40,0.0,-999.0,56,-99.99,,,-99.99,,2013-04-13 13:53:00,
2013-04-13 08:04:00,21.0,7.0,30.00,NE,40,1.0,-999.0,54,-99.99,,,-99.99,,2013-04-13 14:04:00,
2013-04-13 08:14:00,21.0,7.0,30.00,NE,40,1.0,-999.0,54,-99.99,,,-99.99,,2013-04-13 14:14:00,
2013-04-13 08:23:00,22.0,8.0,30.00,NE,40,0.0,-999.0,55,-99.99,,,-99.99,,2013-04-13 14:23:00,
2013-04-13 08:36:00,25.0,8.0,30.00,SW,229,1.0,-999.0,48,-99.99,,,-99.99,,2013-04-13 14:36:00,
2013-04-13 08:45:00,25.0,8.0,30.00,SW,229,1.0,-999.0,48,-99.99,,,-99.99,,2013-04-13 14:45:00,
2013-04-13 08:54:00,28.0,8.0,29.99,SE,140,3.0,-999.0,42,-99.99,,,-99.99,,2013-04-13 14:54:00,
2013-04-13 09:04:00,31.0,10.0,29.99,NE,43,1.0,-999.0,41,-99.99,,,-99.99,,2013-04-13 15:04:00,
2013-04-13 09:14:00,31.0,10.0,29.99,NE,43,1.0,-999.0,41,-99.99,,,-99.99,,2013-04-13 15:14:00,
2013-04-13 09:28:00,32.0,9.0,29.99,SSW,213,1.0,-999.0,38,-99.99,,,-99.99,,2013-04-13 15:28:00,
2013-04-13 09:35:00,34.0,8.0,29.98,ENE,78,2.0,-999.0,33,-99.99,,,-99.99,,2013-04-13 15:35:00,
2013-04-13 09:44:00,34.0,8.0,29.98,ENE,78,2.0,-999.0,33,-99.99,,,-99.99,,2013-04-13 15:44:00,
2013-04-13 09:54:00,34.0,9.0,29.96,NW,315,3.0,-999.0,34,-99.99,,,-99.99,,2013-04-13 15:54:00,
2013-04-13 10:05:00,35.0,10.0,29.96,NNE,26,3.0,-999.0,35,-99.99,,,-99.99,,2013-04-13 16:05:00,
2013-04-13 10:15:00,35.0,10.0,29.96,NNE,26,3.0,-999.0,35,-99.99,,,-99.99,,2013-04-13 16:15:00,
2013-04-13 10:24:00,36.0,12.0,29.94,ENE,61,2.0,-999.0,36,-99.99,,,-99.99,,2013-04-13 16:24:00,
2013-04-13 10:35:00,37.0,10.0,29.94,SSW,194,3.0,-999.0,32,-99.99,,,-99.99,,2013-04-13 16:35:00,
2013-04-13 10:45:00,37.0,10.0,29.94,SSW,194,3.0,-999.0,32,-99.99,,,-99.99,,2013-04-13 16:45:00,
2013-04-13 10:53:00,38.0,11.0,29.92,NNE,18,3.0,-999.0,33,-99.99,,,-99.99,,2013-04-13 16:53:00,
2013-04-13 11:06:00,38.0,13.0,29.91,SSE,155,3.0,-999.0,35,-99.99,,,-99.99,,2013-04-13 17:06:00,
2013-04-13 11:20:00,38.0,13.0,29.91,SSE,155,3.0,-999.0,35,-99.99,,,-99.99,,2013-04-13 17:20:00,
2013-04-13 11:37:00,39.0,14.0,29.88,ENE,74,4.0,-999.0,35,-99.99,,,-99.99,,2013-04-13 17:37:00,
2013-04-13 11:44:00,39.0,14.0,29.88,ENE,74,4.0,-999.0,35,-99.99,,,-99.99,,2013-04-13 17:44:00,
2013-04-13 12:05:00,37.0,11.0,29.85,ESE,103,5.0,-999.0,33,-99.99,,,-99.99,,2013-04-13 18:05:00,
2013-04-13 12:15:00,37.0,11.0,29.85,ESE,103,5.0,-999.0,33,-99.99,,,-99.99,,2013-04-13 18:15:00,
2013-04-13 12:24:00,39.0,13.0,29.84,South,191,5.0,-999.0,34,-99.99,,,-99.99,,2013-04-13 18:24:00,
2013-04-13 12:33:00,39.0,11.0,29.82,ESE,120,7.0,-999.0,31,-99.99,,,-99.99,,2013-04-13 18:33:00,
2013-04-13 12:42:00,39.0,11.0,29.82,ESE,120,7.0,-999.0,31,-99.99,,,-99.99,,2013-04-13 18:42:00,
2013-04-13 12:52:00,40.0,13.0,29.82,ENE,72,7.0,-999.0,33,-99.99,,,-99.99,,2013-04-13 18:52:00,
2013-04-13 13:03:00,41.0,14.0,29.82,ESE,111,6.0,-999.0,33,-99.99,,,-99.99,,2013-04-13 19:03:00,
2013-04-13 13:12:00,41.0,14.0,29.82,ESE,111,6.0,-999.0,33,-99.99,,,-99.99,,2013-04-13 19:12:00,
2013-04-13 13:22:00,41.0,14.0,29.80,ESE,111,6.0,-999.0,33,-99.99,,,-99.99,,2013-04-13 19:22:00,
2013-04-13 13:32:00,42.0,16.0,29.80,ESE,105,5.0,-999.0,34,-99.99,,,-99.99,,2013-04-13 19:32:00,
2013-04-13 13:42:00,42.0,16.0,29.80,ESE,105,5.0,-999.0,34,-99.99,,,-99.99,,2013-04-13 19:42:00,
2013-04-13 13:52:00,42.0,15.0,29.79,ESE,116,7.0,-999.0,33,-99.99,,,-99.99,,2013-04-13 19:52:00,
2013-04-13 14:02:00,42.0,14.0,29.79,East,81,5.0,-999.0,32,-99.99,,,-99.99,,2013-04-13 20:02:00,
2013-04-13 14:12:00,42.0,14.0,29.79,East,81,5.0,-999.0,32,-99.99,,,-99.99,,2013-04-13 20:12:00,
2013-04-13 14:22:00,42.0,16.0,29.79,SSE,167,6.0,-999.0,34,-99.99,,,-99.99,,2013-04-13 20:22:00,
2013-04-13 14:32:00,41.0,15.0,29.78,ESE,104,5.0,-999.0,35,-99.99,,,-99.99,,2013-04-13 20:32:00,
2013-04-13 14:42:00,41.0,15.0,29.78,ESE,104,5.0,-999.0,35,-99.99,,,-99.99,,2013-04-13 20:42:00,
2013-04-13 14:52:00,42.0,14.0,29.78,ENE,77,4.0,-999.0,32,-99.99,,,-99.99,,2013-04-13 20:52:00,
2013-04-13 15:02:00,42.0,14.0,29.76,SSE,155,5.0,-999.0,32,-99.99,,,-99.99,,2013-04-13 21:02:00,
2013-04-13 15:12:00,42.0,14.0,29.76,SSE,155,5.0,-999.0,32,-99.99,,,-99.99,,2013-04-13 21:12:00,
2013-04-13 15:22:00,43.0,14.0,29.76,South,186,5.0,-999.0,31,-99.99,,,-99.99,,2013-04-13 21:22:00,
2013-04-13 15:32:00,43.0,16.0,29.76,ENE,62,4.0,-999.0,33,-99.99,,,-99.99,,2013-04-13 21:32:00,
2013-04-13 15:43:00,43.0,16.0,29.76,ENE,62,4.0,-999.0,33,-99.99,,,-99.99,,2013-04-13 21:43:00,
2013-04-13 15:52:00,43.0,17.0,29.75,SSE,165,5.0,-999.0,34,-99.99,,,-99.99,,2013-04-13 21:52:00,
2013-04-13 16:03:00,42.0,16.0,29.75,South,173,5.0,-999.0,34,-99.99,,,-99.99,,2013-04-13 22:03:00,
2013-04-13 16:12:00,42.0,16.0,29.75,South,173,5.0,-999.0,34,-99.99,,,-99.99,,2013-04-13 22:12:00,
2013-04-13 16:22:00,43.0,17.0,29.74,South,179,5.0,-999.0,34,-99.99,,,-99.99,,2013-04-13 22:22:00,
2013-04-13 16:33:00,41.0,15.0,29.72,East,92,5.0,-999.0,35,-99.99,,,-99.99,,2013-04-13 22:33:00,
2013-04-13 16:42:00,41.0,15.0,29.72,East,92,5.0,-999.0,35,-99.99,,,-99.99,,2013-04-13 22:42:00,
2013-04-13 16:52:00,40.0,15.0,29.71,East,89,5.0,-999.0,35,-99.99,,,-99.99,,2013-04-13 22:52:00,
2013-04-13 17:02:00,40.0,15.0,29.69,ENE,71,4.0,-999.0,36,-99.99,,,-99.99,,2013-04-13 23:02:00,
2013-04-13 17:12:00,40.0,15.0,29.69,ENE,71,4.0,-999.0,36,-99.99,,,-99.99,,2013-04-13 23:12:00,
2013-04-13 17:22:00,41.0,15.0,29.68,ESE,106,6.0,-999.0,35,-99.99,,,-99.99,,2013-04-13 23:22:00,
2013-04-13 17:32:00,39.0,15.0,29.69,East,98,6.0,-999.0,37,-99.99,,,-99.99,,2013-04-13 23:32:00,
2013-04-13 17:42:00,39.0,15.0,29.69,East,98,6.0,-999.0,37,-99.99,,,-99.99,,2013-04-13 23:42:00,
2013-04-13 17:52:00,38.0,15.0,29.70,ESE,115,5.0,-999.0,39,-99.99,,,-99.99,,2013-04-13 23:52:00,
2013-04-13 18:02:00,38.0,16.0,29.70,ENE,71,5.0,-999.0,40,-99.99,,,-99.99,,2013-04-14 00:02:00,
2013-04-13 18:12:00,38.0,16.0,29.70,ENE,71,5.0,-999.0,40,-99.99,,,-99.99,,2013-04-14 00:12:00,
2013-04-13 18:32:00,36.0,16.0,29.68,NE,40,4.0,-999.0,43,-99.99,,,-99.99,,2013-04-14 00:32:00,
2013-04-13 18:42:00,36.0,16.0,29.68,NE,40,4.0,-999.0,43,-99.99,,,-99.99,,2013-04-14 00:42:00,
2013-04-13 18:52:00,36.0,17.0,29.67,ESE,123,5.0,-999.0,46,-99.99,,,-99.99,,2013-04-14 00:52:00,
2013-04-13 19:02:00,35.0,18.0,29.67,East,82,5.0,-999.0,49,-99.99,,,-99.99,,2013-04-14 01:02:00,
2013-04-13 19:12:00,35.0,18.0,29.67,East,82,5.0,-999.0,49,-99.99,,,-99.99,,2013-04-14 01:12:00,
2013-04-13 19:22:00,34.0,18.0,29.67,ENE,69,3.0,-999.0,51,-99.99,,,-99.99,,2013-04-14 01:22:00,
2013-04-13 19:32:00,34.0,18.0,29.66,ESE,120,4.0,-999.0,52,-99.99,,,-99.99,,2013-04-14 01:32:00,
2013-04-13 19:42:00,34.0,18.0,29.66,ESE,120,4.0,-999.0,52,-99.99,,,-99.99,,2013-04-14 01:42:00,
2013-04-13 19:52:00,34.0,19.0,29.67,ESE,109,4.0,-999.0,54,-99.99,,,-99.99,,2013-04-14 01:52:00,
2013-04-13 20:02:00,33.0,19.0,29.65,East,98,3.0,-999.0,56,-99.99,,,-99.99,,2013-04-14 02:02:00,
2013-04-13 20:12:00,33.0,19.0,29.65,East,98,3.0,-999.0,56,-99.99,,,-99.99,,2013-04-14 02:12:00,
2013-04-13 20:22:00,33.0,19.0,29.65,East,85,3.0,-999.0,56,-99.99,,,-99.99,,2013-04-14 02:22:00,
2013-04-13 20:32:00,33.0,19.0,29.65,East,101,4.0,-999.0,56,-99.99,,,-99.99,,2013-04-14 02:32:00,
2013-04-13 20:42:00,33.0,19.0,29.65,East,101,4.0,-999.0,56,-99.99,,,-99.99,,2013-04-14 02:42:00,
2013-04-13 20:52:00,33.0,19.0,29.65,East,92,3.0,-999.0,56,-99.99,,,-99.99,,2013-04-14 02:52:00,
2013-04-13 21:02:00,33.0,19.0,29.64,ENE,78,2.0,-999.0,57,-99.99,,,-99.99,,2013-04-14 03:02:00,
2013-04-13 21:12:00,33.0,19.0,29.64,ENE,78,2.0,-999.0,57,-99.99,,,-99.99,,2013-04-14 03:12:00,
2013-04-13 21:22:00,33.0,19.0,29.64,ENE,77,3.0,-999.0,57,-99.99,,,-99.99,,2013-04-14 03:22:00,
2013-04-13 21:33:00,33.0,20.0,29.64,ENE,67,3.0,-999.0,58,-99.99,,,-99.99,,2013-04-14 03:33:00,
2013-04-13 21:42:00,33.0,20.0,29.64,ENE,67,3.0,-999.0,58,-99.99,,,-99.99,,2013-04-14 03:42:00,
2013-04-13 21:53:00,33.0,21.0,29.63,East,89,4.0,-999.0,60,-99.99,,,-99.99,,2013-04-14 03:53:00,
2013-04-13 22:02:00,33.0,22.0,29.63,ENE,65,3.0,-999.0,64,-99.99,,,-99.99,,2013-04-14 04:02:00,
2013-04-13 22:12:00,33.0,22.0,29.63,ENE,65,3.0,-999.0,64,-99.99,,,-99.99,,2013-04-14 04:12:00,
2013-04-13 22:23:00,32.0,23.0,29.65,ENE,67,2.0,-999.0,70,-99.99,,,-99.99,,2013-04-14 04:23:00,
2013-04-13 22:32:00,31.0,25.0,29.65,ENE,58,0.0,-999.0,77,-99.99,,,-99.99,,2013-04-14 04:32:00,
2013-04-13 22:43:00,31.0,25.0,29.65,ENE,58,0.0,-999.0,77,-99.99,,,-99.99,,2013-04-14 04:43:00,
2013-04-13 22:52:00,30.0,24.0,29.62,ENE,58,0.0,-999.0,79,-99.99,,,-99.99,,2013-04-14 04:52:00,
2013-04-13 23:02:00,29.0,24.0,29.61,ENE,58,0.0,-999.0,82,-99.99,,,-99.99,,2013-04-14 05:02:00,
2013-04-13 23:12:00,29.0,24.0,29.61,ENE,58,0.0,-999.0,82,-99.99,,,-99.99,,2013-04-14 05:12:00,
2013-04-13 23:22:00,29.0,25.0,29.59,ENE,58,0.0,-999.0,83,-99.99,,,-99.99,,2013-04-14 05:22:00,
2013-04-13 23:32:00,29.0,25.0,29.58,ENE,58,0.0,-999.0,85,-99.99,,,-99.99,,2013-04-14 05:32:00,
2013-04-13 23:42:00,29.0,25.0,29.58,ENE,58,0.0,-999.0,85,-99.99,,,-99.99,,2013-04-14 05:42:00,
2013-04-13 23:52:00,29.0,25.0,29.57,ENE,57,0.0,-999.0,86,-99.99,,,-99.99,,2013-04-14 05:52:00,